Temperature
23 23 22 23 24 24 24 23 23 23 24 23 22 21 21 21 21 21 21 21 20 20 20 19 19 19 19 18 18 18 17 17 17 17 16 16 16 16 16 16 16 16 16 16
23 23 24 25 24 24 24 23 23 23 24 23 22 22 22 22 21 21 21 22 21 20 20 19 19 19 19 18 18 18 17 17 17 16 16 16 16 16 15 15 15 15 15 16
23 24 25 24 24 23 23 23 23 23 23 23 22 21 22 22 22 22 22 22 21 21 20 19 19 19 18 18 18 18 17 17 17 16 16 16 16 16 15 15 15 15 15 15
24 25 25 24 24 23 22 24 23 23 22 21 22 20 21 22 21 22 22 22 21 21 20 19 19 18 18 18 18 18 17 17 17 16 16 16 16 16 15 15 15 15 15 15
23 24 24 23 24 24 23 24 24 23 22 22 22 21 22 22 22 22 22 22 22 21 20 20 19 19 18 18 18 18 17 17 17 16 16 16 16 16 16 15 15 15 15 15
24 25 25 24 24 24 24 24 23 23 22 21 22 22 21 22 22 23 23 22 22 21 21 20 19 19 18 18 17 17 17 17 17 16 16 16 16 16 15 15 15 15 15 15
23 24 25 25 24 24 23 22 21 21 21 21 24 23 23 23 24 23 23 22 22 21 21 20 19 18 18 18 17 17 17 17 17 16 16 16 16 16 15 15 15 15 15 15
22 22 24 24 24 23 23 22 21 20 21 22 24 23 24 24 24 24 23 22 22 21 21 20 19 18 18 18 17 17 17 17 17 16 16 16 16 16 16 15 15 15 15 15
23 23 25 25 25 24 23 23 23 22 23 22 23 23 23 24 24 23 23 22 22 21 20 20 19 18 18 18 17 17 17 17 16 16 16 16 16 16 16 15 15 15 15 15
25 23 24 25 24 24 24 24 23 22 21 21 22 23 22 22 23 23 23 22 22 21 20 20 19 18 18 18 17 17 17 17 16 16 16 16 16 16 16 15 15 15 15 15
25 24 24 24 23 23 24 24 23 23 23 21 21 22 25 24 24 23 23 22 22 21 21 20 19 19 18 18 17 17 17 17 16 16 16 16 16 15 15 15 15 15 15 15
25 24 23 24 25 26 25 24 24 22 22 22 22 22 25 24 24 24 23 22 22 21 21 20 19 19 18 17 17 17 17 17 17 16 16 16 16 15 15 15 15 15 15 15
24 24 22 22 23 24 24 25 25 24 23 22 22 22 24 24 24 24 23 22 22 21 21 20 19 18 18 18 17 17 17 17 16 16 16 16 15 15 15 15 15 15 15 14
24 24 22 21 22 24 24 24 25 24 22 22 22 22 23 24 23 23 23 22 22 21 20 20 19 18 18 18 17 17 17 17 17 16 16 16 15 15 15 15 15 14 14 14
24 24 24 24 24 24 24 24 24 24 24 23 23 23 24 24 24 23 23 22 21 21 20 20 19 18 18 18 17 17 17 17 16 16 16 16 15 15 15 15 15 14 14 14
24 24 24 24 25 25 24 24 24 24 24 24 24 24 25 24 24 23 23 22 21 20 20 19 19 18 18 18 17 17 17 17 16 16 16 16 15 15 15 15 14 14 14 14
24 24 23 23 24 24 23 25 25 24 25 25 24 24 25 24 24 23 23 22 21 21 20 19 19 18 18 18 17 17 17 17 16 16 16 16 15 15 15 15 14 14 14 14
24 23 23 23 23 22 24 26 26 25 25 26 25 25 25 24 24 23 23 22 21 21 20 19 19 18 18 18 17 17 17 16 16 16 16 16 15 15 15 15 14 14 14 14
24 23 22 22 22 23 24 26 26 25 24 26 25 25 25 24 23 23 23 22 21 21 20 19 19 18 18 18 17 17 16 16 16 16 16 15 15 15 15 14 14 14 14 14
24 23 22 22 21 21 23 25 26 25 23 25 25 25 24 24 22 22 22 21 21 20 20 19 19 19 18 18 17 17 16 16 16 16 15 15 15 15 15 14 14 14 14 13
22 22 22 21 21 22 24 25 25 23 23 25 25 24 24 23 23 22 21 21 20 20 19 19 19 18 18 18 17 17 16 16 16 15 15 15 15 15 15 14 14 14 13 13
23 22 22 22 22 22 24 24 24 24 25 24 24 24 23 23 22 22 21 20 20 19 19 18 18 18 18 17 17 17 16 16 15 15 15 15 14 14 14 14 14 13 13 13
23 23 23 23 22 23 24 24 23 24 24 23 23 23 22 22 21 21 20 19 19 19 18 18 18 17 17 17 17 17 16 16 15 15 15 14 14 14 14 14 13 13 13 13
24 24 23 23 23 23 23 23 23 23 23 22 22 22 21 21 20 20 19 19 18 18 18 17 17 17 17 16 16 16 16 16 15 15 14 14 14 13 13 13 13 13 13 12
22 22 22 22 22 22 22 22 22 22 22 21 21 21 20 20 20 19 19 18 18 17 17 17 17 16 16 16 16 16 15 15 15 14 14 14 13 13 13 13 13 13 13 12
22 22 21 21 22 22 21 21 21 21 21 20 20 20 19 19 19 19 18 18 17 17 17 16 16 16 16 16 15 15 15 15 14 14 13 13 13 13 13 13 12 12 12 12
Wind_Speed
6 5 5 5 4 4 2 3 3 3 5 5 5 5 7 8 8 8 9 10 12 10 9 9 8 7 7 6 8 7 7 5 4 3 3 3 3 3 3 5 8 9 10 9
5 5 5 4 3 3 2 3 3 4 5 4 5 5 7 9 10 9 9 10 11 11 10 9 8 7 7 7 7 7 6 6 5 3 3 3 3 3 4 4 7 9 9 9
4 2 4 4 4 4 3 3 3 4 3 3 4 4 7 8 8 8 8 8 10 12 13 11 9 7 7 7 6 6 7 6 5 4 3 3 3 2 3 4 3 5 7 8
3 3 3 4 4 3 3 3 4 4 4 3 5 3 6 9 9 9 9 9 10 10 12 11 10 9 7 7 6 6 6 6 6 5 3 4 3 2 3 3 2 3 6 6
3 3 3 3 3 3 3 3 3 5 5 5 7 4 5 10 11 10 10 10 10 10 12 12 11 10 8 7 6 6 6 6 5 5 4 3 3 3 3 3 3 3 4 5
4 3 3 3 3 3 3 3 5 6 5 6 8 6 4 8 11 11 10 10 10 11 11 11 11 10 8 7 6 6 6 5 5 5 5 5 4 4 4 3 3 3 3 3
6 6 5 4 4 4 6 4 2 4 5 5 6 5 4 7 8 9 10 11 10 11 11 11 11 10 8 8 7 6 6 5 4 5 5 6 5 4 4 3 3 3 3 2
6 7 8 7 5 5 7 5 3 2 2 2 4 2 4 8 7 8 9 10 10 11 11 11 12 10 9 9 8 7 7 5 4 4 4 5 5 3 3 3 3 3 3 3
4 5 7 7 6 5 6 6 6 5 6 3 3 4 6 8 8 8 9 10 11 12 12 11 11 11 10 10 8 7 7 6 5 4 4 4 4 4 4 3 3 3 3 3
4 3 7 7 6 8 7 6 4 3 3 3 3 4 6 9 9 8 9 9 10 11 12 12 11 11 10 9 8 7 7 7 6 6 5 5 5 4 4 4 4 4 4 3
6 4 6 8 9 9 8 8 5 4 4 2 1 1 4 8 8 9 9 9 10 10 12 12 11 10 10 10 8 7 7 7 6 6 6 6 5 4 3 4 4 4 4 3
5 4 6 8 7 7 8 7 5 4 4 3 2 0 4 6 7 8 8 9 9 10 10 11 11 11 10 10 9 8 7 7 6 6 6 6 6 5 4 4 5 4 4 3
3 4 4 4 5 8 8 8 7 6 5 4 3 2 5 5 7 7 7 8 8 9 10 10 11 11 10 10 9 9 8 8 7 6 6 6 6 5 4 5 4 4 4 4
3 6 6 6 4 6 8 8 8 7 5 5 4 3 4 5 6 7 8 8 8 9 10 10 10 10 9 9 9 8 8 8 8 7 7 6 6 5 5 5 4 4 4 4
6 8 8 7 6 6 7 8 8 9 8 6 4 4 4 5 6 8 8 9 10 10 10 10 10 10 9 9 8 8 8 8 9 8 7 6 6 6 5 4 4 4 3 3
8 8 9 9 8 8 9 9 9 9 9 8 6 4 3 4 4 6 8 9 10 10 10 10 11 10 10 9 8 7 9 9 9 8 7 7 7 6 5 5 5 5 4 3
8 9 8 9 9 9 10 8 9 9 8 7 6 3 4 5 5 6 8 8 9 10 10 10 10 10 11 10 9 8 9 9 9 8 8 7 7 6 5 5 5 5 4 3
9 9 7 8 8 9 5 4 5 6 7 7 5 3 4 5 5 6 7 9 8 9 10 10 9 9 9 10 10 9 8 9 9 9 8 7 7 7 6 5 5 4 4 4
10 8 6 6 8 8 6 4 4 5 6 4 4 3 3 4 4 5 6 7 7 8 8 8 9 9 9 10 10 9 9 8 8 9 9 8 8 7 6 6 5 4 4 4
9 8 8 7 8 8 4 2 1 3 4 3 4 4 4 5 4 3 6 6 6 7 7 8 8 9 9 9 10 10 9 8 8 8 8 8 8 7 7 6 5 4 4 4
11 10 11 10 9 6 2 3 3 4 1 2 3 3 3 3 3 5 7 7 6 6 6 7 8 7 8 9 10 9 9 8 8 8 8 8 8 8 7 6 5 5 4 4
10 8 10 9 9 5 2 3 2 1 2 2 2 2 2 4 6 6 7 7 7 7 7 7 7 6 7 9 10 9 8 8 8 8 8 8 8 8 7 6 5 5 5 5
8 7 4 4 2 1 3 1 1 2 3 4 4 3 4 5 5 6 7 7 7 7 7 6 6 7 6 7 8 9 8 9 9 8 8 8 8 7 7 7 6 5 5 4
5 4 4 5 3 2 1 1 2 3 3 3 3 4 4 4 4 5 6 7 7 6 7 6 7 7 6 6 7 8 9 9 10 9 9 8 8 7 6 5 5 5 4 4
3 3 5 5 2 2 2 2 2 2 3 3 3 3 3 4 4 4 5 6 7 6 6 6 7 7 7 7 7 8 9 9 9 9 8 7 7 7 6 5 4 4 4 5
6 5 6 4 3 3 1 1 1 1 2 2 2 2 3 4 4 4 4 5 6 7 6 6 6 7 7 8 8 7 8 9 9 8 7 6 6 6 6 6 4 4 4 5
Wind_Direction
199 203 208 205 214 269 225 158 151 152 154 165 163 173 181 183 189 194 191 178 167 161 152 143 143 147 145 134 124 122 124 117 104 94 96 87 74 70 62 55 48 45 41 34
187 211 204 190 195 230 228 159 153 145 163 178 177 188 190 191 198 198 198 180 164 156 150 149 154 155 147 133 129 130 121 110 96 82 94 102 91 87 85 60 48 47 45 31
203 170 168 184 188 198 207 183 178 171 166 202 199 211 196 185 191 193 202 180 166 164 158 158 160 149 139 140 136 136 130 123 117 111 88 91 76 69 90 92 67 53 59 43
224 186 172 191 198 196 221 185 196 200 199 215 212 220 206 186 189 195 194 180 170 167 156 157 156 151 151 146 142 142 133 131 134 132 125 125 123 114 103 107 113 91 72 61
216 186 180 207 217 200 209 206 225 227 232 247 229 223 201 181 187 190 187 180 169 165 159 159 160 158 160 152 149 142 137 139 135 129 122 124 121 121 108 103 103 93 75 69
219 192 199 187 182 181 188 211 236 235 244 246 231 221 191 185 188 187 183 177 171 166 161 159 157 154 155 145 143 140 140 132 140 154 148 138 128 118 109 97 102 99 88 72
213 201 193 185 181 190 208 211 223 216 216 227 206 210 179 167 176 179 177 176 172 164 161 157 153 152 152 147 148 147 144 147 164 164 149 135 135 132 125 123 106 100 93 76
208 200 195 195 205 211 220 225 247 263 238 226 202 203 131 140 145 159 166 166 163 161 157 155 155 155 156 155 158 159 155 157 160 156 141 136 138 132 116 114 115 106 98 90
216 197 183 193 211 218 225 232 245 267 279 257 200 145 125 136 144 157 163 163 164 162 159 158 157 158 159 159 163 165 159 157 163 160 133 124 129 121 129 134 111 105 104 103
244 210 195 188 209 223 234 255 270 266 287 274 219 182 159 158 163 166 167 166 165 165 162 160 161 162 161 157 162 166 163 162 166 157 145 130 124 122 128 123 117 113 111 104
255 229 201 196 208 216 215 227 245 263 264 279 294 34 125 152 161 167 169 165 167 167 164 163 162 160 158 157 165 168 164 163 161 153 143 140 135 127 134 125 120 116 114 117
241 247 218 215 215 220 231 234 232 246 267 259 264 170 111 136 149 158 164 163 167 165 162 160 159 158 160 162 168 170 169 163 156 152 146 143 135 135 147 130 126 124 126 130
258 253 235 222 220 215 226 236 238 244 262 268 260 169 151 152 154 155 158 157 160 161 158 156 157 160 162 165 170 173 169 162 153 146 141 138 142 143 136 122 126 135 135 132
250 245 228 229 239 212 231 236 240 245 251 261 249 204 181 172 164 160 158 161 161 159 157 159 157 159 161 165 169 171 166 154 149 150 146 143 142 136 135 135 137 132 128 127
238 252 244 243 252 240 244 241 235 241 247 256 243 222 206 186 174 168 165 163 162 158 160 159 160 161 163 166 169 168 157 151 149 148 147 148 142 136 137 136 133 117 108 109
238 253 259 254 247 245 250 241 236 240 242 247 245 240 196 170 167 164 163 163 163 165 166 164 164 163 168 168 165 159 156 155 152 153 151 142 141 137 137 136 126 117 111 111
235 252 259 262 249 249 247 237 234 234 234 235 242 222 171 169 169 171 166 167 169 167 166 166 169 170 170 169 168 166 160 155 156 152 142 142 142 136 140 138 124 126 129 119
239 249 254 259 257 253 247 230 224 231 236 234 237 212 179 171 166 171 164 166 172 168 165 168 172 172 170 167 166 165 160 159 159 150 144 143 140 141 141 135 136 140 130 123
232 239 251 258 259 261 247 235 226 226 237 227 215 207 171 151 158 167 157 156 164 164 163 165 168 167 168 165 164 161 160 157 154 148 151 152 149 147 145 146 151 146 136 130
223 230 238 248 251 256 246 201 229 233 233 202 197 187 165 168 183 158 135 131 133 140 150 156 159 160 161 162 159 158 159 159 157 153 153 150 148 149 152 151 150 143 139 143
211 221 229 241 248 251 242 172 196 225 203 134 171 159 164 163 126 130 132 131 128 133 141 144 150 153 158 157 155 159 158 161 155 148 144 144 149 154 150 146 146 142 143 146
221 222 229 234 240 235 152 185 225 328 73 104 109 121 120 107 107 116 122 126 133 134 134 137 141 143 146 150 156 158 156 151 143 145 146 149 155 157 150 146 148 149 149 155
229 229 227 236 236 133 151 132 29 7 48 60 68 73 91 102 114 127 133 132 131 133 135 134 138 139 140 146 151 150 147 145 144 147 150 151 152 148 148 153 156 158 159 162
239 257 250 239 218 194 158 100 41 24 42 47 60 87 103 109 118 128 133 134 133 135 139 141 143 147 149 148 144 145 143 144 146 150 153 154 155 149 145 147 151 155 165 168
258 251 260 257 240 222 181 140 111 70 64 68 69 85 111 115 128 137 140 141 141 141 145 151 155 158 155 145 141 141 146 150 152 152 155 155 149 147 145 141 147 159 167 174
254 250 242 241 246 262 229 141 91 83 79 87 94 100 124 134 143 145 144 143 144 147 148 151 157 158 155 149 148 148 151 157 159 160 161 159 155 152 150 143 120 79 120 135
Height
1502 1505 1507 1504 1503 1503 1504 1509 1513 1512 1510 1514 1519 1521 1522 1523 1525 1527 1529 1531 1534 1537 1540 1543 1545 1548 1550 1552 1553 1555 1556 1558 1559 1560 1560 1561 1562 1562 1562 1563 1562 1562 1562 1562
1503 1505 1500 1499 1501 1504 1505 1510 1513 1511 1510 1514 1518 1520 1519 1521 1522 1524 1526 1528 1531 1535 1539 1542 1545 1547 1550 1552 1553 1555 1557 1558 1559 1560 1561 1562 1562 1563 1563 1563 1563 1563 1563 1563
1503 1500 1498 1500 1503 1506 1507 1510 1512 1513 1512 1513 1517 1522 1519 1518 1520 1522 1524 1526 1530 1533 1537 1541 1544 1546 1549 1551 1553 1555 1556 1558 1559 1560 1561 1562 1563 1564 1564 1564 1564 1564 1564 1564
1500 1497 1498 1501 1504 1505 1512 1506 1508 1511 1517 1521 1518 1532 1521 1516 1519 1520 1522 1524 1528 1531 1535 1539 1542 1545 1548 1551 1553 1555 1556 1558 1559 1560 1561 1562 1563 1564 1565 1565 1565 1565 1566 1565
1501 1498 1500 1504 1503 1504 1508 1505 1507 1510 1514 1519 1516 1524 1520 1513 1517 1517 1518 1522 1525 1529 1533 1537 1540 1544 1547 1550 1552 1554 1556 1558 1559 1560 1561 1562 1563 1564 1565 1566 1566 1566 1566 1566
1497 1497 1499 1501 1501 1503 1504 1507 1508 1509 1514 1527 1515 1518 1520 1511 1510 1512 1515 1519 1523 1527 1531 1535 1539 1542 1545 1548 1551 1553 1555 1557 1559 1560 1561 1562 1563 1564 1565 1566 1567 1567 1567 1567
1501 1499 1498 1500 1503 1505 1506 1514 1526 1528 1528 1523 1504 1510 1511 1502 1502 1507 1511 1516 1520 1525 1529 1533 1537 1540 1544 1547 1550 1552 1554 1556 1558 1560 1561 1562 1563 1564 1565 1566 1567 1567 1567 1568
1506 1508 1498 1498 1502 1506 1506 1511 1526 1533 1528 1516 1504 1508 1502 1497 1501 1505 1509 1514 1518 1523 1527 1531 1535 1538 1542 1545 1548 1551 1553 1555 1557 1559 1560 1561 1563 1564 1565 1566 1567 1567 1568 1568
1501 1503 1494 1496 1497 1500 1506 1507 1504 1513 1511 1516 1509 1503 1501 1498 1501 1505 1508 1512 1516 1521 1525 1529 1533 1537 1540 1543 1546 1549 1551 1554 1556 1558 1559 1561 1562 1563 1564 1566 1567 1567 1568 1568
1489 1500 1495 1494 1497 1498 1499 1500 1505 1512 1521 1525 1513 1507 1508 1503 1503 1504 1507 1511 1515 1519 1523 1527 1531 1535 1539 1542 1545 1548 1550 1552 1554 1557 1558 1560 1561 1562 1564 1565 1566 1567 1567 1568
1486 1496 1497 1495 1498 1499 1499 1501 1502 1505 1508 1521 1525 1516 1492 1496 1498 1501 1505 1509 1513 1517 1521 1525 1529 1533 1537 1540 1543 1546 1549 1551 1553 1555 1557 1559 1560 1562 1563 1564 1565 1566 1567 1568
1485 1491 1498 1494 1488 1488 1491 1494 1499 1512 1512 1507 1516 1515 1491 1494 1496 1499 1503 1507 1511 1515 1519 1523 1527 1531 1535 1538 1542 1545 1547 1549 1552 1554 1556 1558 1559 1561 1562 1564 1565 1566 1567 1568
1486 1492 1503 1505 1500 1491 1491 1490 1491 1495 1501 1506 1515 1513 1492 1494 1496 1499 1502 1506 1510 1514 1517 1521 1525 1529 1532 1536 1539 1543 1545 1547 1550 1552 1555 1557 1558 1560 1562 1563 1564 1566 1567 1568
1487 1490 1499 1509 1500 1492 1492 1490 1489 1494 1504 1506 1505 1503 1495 1494 1496 1498 1502 1505 1508 1512 1516 1519 1523 1527 1530 1534 1537 1540 1543 1546 1548 1551 1553 1555 1557 1559 1561 1562 1564 1565 1566 1567
1485 1489 1487 1486 1484 1485 1487 1488 1488 1492 1493 1499 1498 1496 1493 1492 1493 1497 1500 1503 1507 1510 1514 1518 1521 1525 1528 1532 1535 1538 1541 1544 1546 1549 1551 1553 1556 1558 1559 1561 1563 1564 1565 1567
1482 1486 1485 1486 1482 1482 1485 1484 1485 1487 1487 1489 1490 1491 1487 1489 1492 1495 1498 1501 1505 1508 1512 1516 1519 1523 1526 1529 1533 1536 1539 1542 1545 1547 1550 1552 1554 1556 1558 1560 1561 1563 1564 1565
1482 1484 1489 1490 1482 1482 1488 1481 1480 1482 1481 1484 1489 1487 1485 1488 1490 1493 1496 1499 1502 1506 1510 1513 1517 1520 1524 1527 1530 1534 1537 1540 1543 1546 1548 1550 1553 1554 1556 1558 1560 1561 1563 1564
1480 1483 1485 1487 1487 1499 1483 1470 1472 1476 1477 1477 1479 1480 1482 1485 1488 1491 1494 1497 1500 1504 1507 1511 1515 1518 1522 1525 1529 1532 1535 1538 1541 1544 1546 1548 1550 1552 1554 1556 1558 1560 1561 1562
1475 1480 1486 1488 1493 1487 1476 1469 1470 1475 1477 1474 1477 1479 1481 1484 1487 1490 1492 1495 1498 1501 1504 1508 1512 1516 1519 1523 1526 1530 1533 1536 1539 1541 1543 1546 1548 1550 1552 1554 1556 1558 1559 1561
1473 1475 1484 1487 1494 1496 1479 1469 1469 1473 1480 1473 1475 1477 1480 1483 1488 1490 1491 1493 1497 1499 1503 1506 1510 1514 1517 1521 1524 1527 1531 1533 1536 1538 1541 1544 1546 1548 1550 1552 1554 1556 1557 1559
1475 1478 1482 1485 1488 1481 1470 1468 1471 1483 1482 1473 1474 1476 1479 1481 1485 1488 1490 1493 1495 1498 1501 1505 1508 1511 1515 1518 1522 1525 1528 1530 1533 1536 1539 1541 1544 1546 1548 1550 1552 1554 1555 1557
1470 1476 1477 1478 1484 1484 1469 1469 1473 1474 1471 1472 1474 1476 1479 1481 1484 1486 1489 1491 1494 1497 1500 1503 1506 1509 1513 1516 1519 1522 1525 1528 1531 1534 1537 1539 1542 1544 1546 1548 1550 1552 1553 1555
1462 1465 1467 1470 1474 1469 1468 1470 1471 1472 1472 1474 1475 1477 1479 1481 1484 1486 1488 1491 1493 1496 1499 1502 1505 1508 1511 1514 1517 1520 1523 1526 1529 1532 1534 1536 1539 1541 1543 1546 1548 1549 1551 1553
1458 1459 1462 1465 1465 1466 1468 1469 1471 1472 1473 1475 1476 1478 1479 1481 1484 1486 1488 1491 1493 1495 1498 1500 1503 1506 1509 1512 1515 1518 1521 1524 1526 1529 1531 1534 1536 1539 1541 1543 1545 1547 1548 1550
1460 1461 1463 1464 1465 1466 1468 1469 1471 1472 1474 1475 1477 1478 1480 1481 1484 1486 1488 1490 1492 1494 1497 1499 1501 1504 1507 1510 1513 1516 1518 1521 1524 1526 1529 1531 1534 1536 1538 1540 1543 1544 1546 1548
1460 1461 1464 1465 1465 1466 1468 1469 1471 1472 1474 1475 1477 1478 1480 1481 1483 1485 1487 1489 1491 1493 1495 1498 1500 1503 1505 1508 1510 1513 1516 1518 1521 1524 1526 1529 1531 1533 1535 1537 1540 1542 1544 1545